EW6604 Weather Reports


Display with metric or nautical units.
time (UTC)temp
F
wind
direction
speed
MPH
gust
MPH
rain 1hr
in
rain 24hr
in
rain mn
in
humidity
%
barometer
mb
20260509203218 76 327 8.0 9.0 0.00 1.01 0.42 93 1012.2
20260509202722 76 330 7.0 9.0 0.00 1.01 0.42 94 1012.3
20260509202226 75 340 4.0 5.0 0.00 1.01 0.42 93 1012.1
20260509201728 75 349 3.0 4.0 0.01 1.01 0.42 94 1012.1
20260509201231 75 71 2.0 2.0 0.09 1.01 0.42 93 1012.0
20260509200726 75 54 1.0 4.0 0.41 1.01 0.42 93 1012.0
20260509200230 74 21 2.0 5.0 0.42 1.01 0.42 93 1012.0
20260509195715 74 350 2.0 7.0 0.42 1.01 0.42 93 1012.0
20260509195219 74 330 4.0 7.0 0.42 1.01 0.42 93 1011.9
20260509194723 74 9 5.0 7.0 0.42 1.01 0.42 93 1012.0
20260509194228 74 25 4.0 8.0 0.42 1.01 0.42 92 1012.2
20260509193715 74 49 4.0 8.0 0.42 1.01 0.42 92 1012.3
20260509193220 74 30 3.0 10.0 0.42 1.01 0.42 92 1012.5
20260509192717 74 40 6.0 10.0 0.42 1.01 0.42 92 1012.4
20260509192222 74 31 3.0 14.0 0.41 1.00 0.41 92 1012.3
20260509191727 74 323 5.0 25.0 0.41 1.00 0.41 90 1012.4
20260509191231 77 246 19.0 25.0 0.29 0.88 0.32 86 1012.9
20260509190727 83 279 13.0 18.0 0.01 0.60 0.01 80 1012.6
20260509190231 83 1 5.0 6.0 0.00 0.59 0.00 77 1011.7
20260509185730 83 356 3.0 4.0 0.00 0.59 0.00 77 1011.7
20260509185214 83 10 3.0 5.0 0.00 0.59 0.00 78 1011.9
20260509184718 83 18 4.0 5.0 0.00 0.59 0.00 76 1011.9
20260509184226 83 36 4.0 5.0 0.00 0.59 0.00 75 1011.9
20260509183730 83 33 4.0 6.0 0.00 0.59 0.00 77 1012.1
20260509183215 83 31 4.0 6.0 0.00 0.59 0.00 77 1012.1
20260509182719 83 18 5.0 7.0 0.00 0.59 0.00 77 1012.2
20260509182240 83 15 6.0 7.0 0.00 0.59 0.00 78 1012.3
20260509181721 83 15 5.0 7.0 0.00 0.59 0.00 78 1012.4
20260509181223 83 7 5.0 8.0 0.00 0.59 0.00 78 1012.5
20260509180724 82 14 6.0 8.0 0.00 0.59 0.00 78 1012.6
20260509180247 82 20 6.0 8.0 0.00 0.59 0.00 78 1012.6
20260509175729 82 24 6.0 8.0 0.00 0.59 0.00 80 1012.7
20260509175230 82 347 6.0 9.0 0.00 0.59 0.00 80 1012.8
20260509174712 82 360 7.0 9.0 0.00 0.59 0.00 81 1012.8
20260509174217 82 6 7.0 9.0 0.00 0.59 0.00 80 1012.8
20260509173719 82 7 7.0 8.0 0.00 0.59 0.00 80 1012.8
20260509173222 82 352 5.0 8.0 0.00 0.59 0.00 80 1012.8
20260509172731 82 4 6.0 8.0 0.00 0.59 0.00 80 1012.8
20260509172214 82 13 5.0 7.0 0.00 0.59 0.00 80 1012.9
20260509171729 82 12 6.0 10.0 0.00 0.59 0.00 79 1012.9
20260509171214 82 354 7.0 10.0 0.00 0.59 0.00 79 1012.9
20260509170718 82 340 4.0 6.0 0.00 0.59 0.00 78 1012.9
20260509170224 83 334 4.0 7.0 0.00 0.59 0.00 77 1013.0
20260509165727 83 302 5.0 7.0 0.00 0.59 0.00 76 1013.1
20260509165231 83 282 3.0 7.0 0.00 0.59 0.00 76 1013.1
20260509164715 83 283 4.0 8.0 0.00 0.59 0.00 75 1013.1
20260509164219 83 279 5.0 8.0 0.00 0.59 0.00 75 1013.1
20260509163725 83 246 3.0 7.0 0.00 0.59 0.00 76 1013.1
20260509163213 82 265 4.0 8.0 0.00 0.59 0.00 76 1013.2
20260509162729 82 276 4.0 7.0 0.00 0.59 0.00 77 1013.1
20260509162234 82 289 4.0 6.0 0.00 0.59 0.00 78 1013.1
20260509161717 82 258 2.0 6.0 0.00 0.59 0.00 79 1013.0
20260509161241 81 253 3.0 6.0 0.00 0.59 0.00 80 1013.1
20260509160715 81 241 2.0 8.0 0.00 0.59 0.00 81 1013.1
20260509155718 81 329 2.0 5.0 0.00 0.59 0.00 82 1013.3
20260509155223 81 272 3.0 6.0 0.00 0.59 0.00 82 1013.3
20260509154726 80 291 3.0 6.0 0.00 0.59 0.00 82 1013.3
20260509154231 80 248 2.0 4.0 0.00 0.59 0.00 83 1013.2
20260509153727 80 264 1.0 4.0 0.00 0.59 0.00 83 1013.3
20260509153231 80 286 1.0 5.0 0.00 0.59 0.00 84 1013.2
20260509152718 79 268 2.0 7.0 0.00 0.59 0.00 85 1013.3
20260509152223 79 280 5.0 7.0 0.00 0.59 0.00 84 1013.4
20260509151717 80 248 3.0 5.0 0.00 0.59 0.00 84 1013.4
20260509151220 80 294 1.0 4.0 0.00 0.59 0.00 84 1013.4
20260509150725 80 146 1.0 6.0 0.00 0.59 0.00 84 1013.4
20260509150232 79 201 3.0 8.0 0.00 0.59 0.00 84 1013.5
20260509145712 79 302 4.0 8.0 0.00 0.59 0.00 84 1013.7
20260509145216 80 271 4.0 8.0 0.00 0.59 0.00 84 1013.8
20260509144721 80 156 1.0 6.0 0.00 0.59 0.00 84 1013.8
20260509144221 79 267 1.0 9.0 0.00 0.59 0.00 85 1014.0
20260509143726 79 275 4.0 9.0 0.00 0.59 0.00 84 1013.9
20260509143227 79 305 4.0 6.0 0.00 0.59 0.00 84 1013.9
20260509142751 79 276 3.0 6.0 0.00 0.59 0.00 85 1013.8
20260509142231 79 295 2.0 4.0 0.00 0.59 0.00 85 1013.7
20260509141728 79 301 2.0 4.0 0.00 0.59 0.00 85 1013.7
20260509141213 79 253 1.0 4.0 0.00 0.59 0.00 86 1013.8
20260509140726 79 162 1.0 4.0 0.00 0.59 0.00 86 1013.7
20260509140226 78 261 1.0 4.0 0.00 0.59 0.00 87 1013.7
20260509135729 78 214 2.0 7.0 0.00 0.59 0.00 87 1013.7
20260509135213 78 285 3.0 7.0 0.00 0.59 0.00 87 1013.7
20260509134718 78 257 1.0 4.0 0.00 0.59 0.00 87 1013.5
20260509134243 78 251 1.0 4.0 0.00 0.59 0.00 87 1013.3
20260509133728 78 187 1.0 4.0 0.00 0.59 0.00 88 1013.1
20260509133233 77 88 2.0 5.0 0.00 0.59 0.00 88 1013.1
20260509132717 77 107 2.0 6.0 0.00 0.59 0.00 88 1013.0
20260509132222 77 104 2.0 6.0 0.00 0.59 0.00 88 1013.1
20260509131724 77 162 1.0 4.0 0.00 0.59 0.00 89 1013.1
20260509131309 77 134 2.0 4.0 0.00 0.59 0.00 89 1013.1
20260509130726 76 133 1.0 4.0 0.00 0.59 0.00 90 1012.9
20260509130216 76 191 2.0 4.0 0.00 0.59 0.00 90 1012.9
20260509125720 76 122 2.0 4.0 0.00 0.59 0.00 91 1012.9
20260509125226 75 31 2.0 4.0 0.00 0.59 0.00 92 1012.9
20260509124727 74 109 1.0 2.0 0.00 0.59 0.00 92 1012.9
20260509124233 74 179 0.0 1.0 0.00 0.59 0.00 93 1012.9
20260509123717 73 208 0.0 1.0 0.00 0.59 0.00 93 1013.0
20260509123222 73 157 0.0 0.0 0.00 0.59 0.00 93 1013.0
20260509122746 73 156 0.0 0.0 0.00 0.59 0.00 93 1013.1
20260509122251 73 156 0.0 1.0 0.00 0.59 0.00 93 1013.2
20260509121734 73 156 0.0 1.0 0.00 0.59 0.00 94 1013.0
20260509121218 72 190 0.0 2.0 0.00 0.59 0.00 94 1012.9
20260509120713 72 105 0.0 2.0 0.00 0.59 0.00 94 1012.9
20260509120217 72 212 0.0 2.0 0.00 0.59 0.00 94 1012.8
20260509115723 72 125 0.0 2.0 0.00 0.59 0.00 94 1012.9
20260509114714 71 172 1.0 4.0 0.00 0.59 0.00 94 1012.6
20260509114218 71 218 0.0 3.0 0.00 0.59 0.00 94 1012.5
20260509113723 71 149 1.0 3.0 0.00 0.59 0.00 94 1012.5
20260509113229 71 100 1.0 3.0 0.00 0.59 0.00 94 1012.5
20260509112730 71 77 1.0 3.0 0.00 0.59 0.00 94 1012.6
20260509112235 71 130 2.0 5.0 0.00 0.59 0.00 94 1012.7
20260509111740 71 192 1.0 3.0 0.00 0.59 0.00 94 1012.7
20260509111223 71 128 1.0 2.0 0.00 0.59 0.00 94 1012.6
20260509110728 71 152 1.0 2.0 0.00 0.59 0.00 94 1012.7
20260509110232 70 127 0.0 2.0 0.00 0.59 0.00 94 1012.8
20260509105717 70 114 0.0 1.0 0.00 0.59 0.00 94 1012.9
20260509105225 70 98 0.0 1.0 0.00 0.59 0.00 94 1012.9
20260509104730 70 185 0.0 1.0 0.00 0.59 0.00 94 1013.0
20260509104215 70 185 0.0 5.0 0.00 0.59 0.00 94 1012.9
20260509103719 70 152 0.0 5.0 0.00 0.59 0.00 94 1012.8
20260509103225 70 155 0.0 1.0 0.00 0.59 0.00 94 1012.8
20260509102730 70 112 0.0 1.0 0.00 0.59 0.00 94 1012.8
20260509102214 70 144 0.0 1.0 0.00 0.59 0.00 94 1012.7
20260509101738 70 122 0.0 2.0 0.00 0.59 0.00 94 1012.8
20260509101222 70 143 0.0 2.0 0.00 0.59 0.00 94 1012.8
20260509100715 70 187 0.0 2.0 0.00 0.59 0.00 94 1012.8
20260509100219 70 189 1.0 2.0 0.00 0.59 0.00 94 1012.8
20260509095716 70 194 0.0 1.0 0.00 0.59 0.00 94 1012.8
20260509095221 70 194 0.0 1.0 0.00 0.59 0.00 94 1012.7
20260509094726 70 201 0.0 2.0 0.00 0.59 0.00 94 1012.8
20260509094231 70 196 0.0 2.0 0.00 0.59 0.00 94 1012.8
20260509093716 70 198 0.0 1.0 0.00 0.59 0.00 94 1012.9
20260509093221 70 198 0.0 1.0 0.00 0.59 0.00 94 1012.8
20260509092725 70 198 0.0 1.0 0.00 0.59 0.00 93 1012.8
20260509092230 70 198 0.0 2.0 0.00 0.59 0.00 93 1012.9
20260509091734 70 198 1.0 2.0 0.00 0.59 0.00 93 1013.0
20260509091218 70 202 1.0 1.0 0.00 0.59 0.00 93 1013.1
20260509090722 70 202 0.0 1.0 0.00 0.59 0.00 93 1013.0
20260509090227 70 202 0.0 1.0 0.00 0.59 0.00 92 1013.0
20260509085736 70 202 1.0 1.0 0.00 0.59 0.00 92 1013.0
20260509085239 70 206 0.0 1.0 0.00 0.59 0.00 92 1013.1
20260509084720 70 159 0.0 1.0 0.00 0.59 0.00 92 1013.1
20260509084225 70 151 0.0 2.0 0.00 0.59 0.00 92 1013.1
20260509083729 70 151 0.0 3.0 0.00 0.59 0.00 91 1013.0
20260509083232 70 203 1.0 3.0 0.00 0.59 0.00 91 1013.0
20260509082737 70 192 1.0 2.0 0.00 0.59 0.00 90 1012.9
20260509082220 71 158 1.0 7.0 0.00 0.59 0.00 89 1013.0
20260509081742 71 125 1.0 7.0 0.00 0.59 0.00 89 1013.0
20260509081225 71 50 4.0 7.0 0.00 0.59 0.00 89 1013.0
20260509080728 71 73 5.0 7.0 0.00 0.59 0.00 89 1013.0
20260509080232 72 77 5.0 7.0 0.00 0.59 0.00 90 1013.0
20260509075715 72 62 2.0 7.0 0.00 0.59 0.00 90 1013.1
20260509075220 71 61 5.0 7.0 0.00 0.59 0.00 90 1013.0
20260509074724 71 48 6.0 9.0 0.00 0.59 0.00 90 1013.1
20260509074249 71 34 7.0 9.0 0.00 0.59 0.00 90 1013.2
20260509073715 71 42 7.0 9.0 0.00 0.59 0.00 92 1013.2
20260509073218 71 47 6.0 8.0 0.00 0.59 0.00 93 1013.3
20260509072722 71 42 5.0 8.0 0.00 0.59 0.00 94 1013.3
20260509072216 71 40 6.0 9.0 0.00 0.59 0.00 95 1013.3
20260509071720 71 37 7.0 12.0 0.00 0.59 0.00 95 1013.5
20260509071224 71 11 7.0 12.0 0.00 0.59 0.00 95 1013.5
20260509070729 72 19 8.0 12.0 0.00 0.59 0.00 95 1013.4
20260509070233 72 37 8.0 10.0 0.00 0.59 0.00 95 1013.6
20260509065718 72 25 7.0 10.0 0.00 0.59 0.00 95 1013.7
20260509065223 72 27 7.0 10.0 0.00 0.59 0.00 95 1013.6
20260509064725 72 54 7.0 9.0 0.00 0.59 0.00 95 1013.8
20260509064233 72 28 6.0 11.0 0.00 0.59 0.00 95 1013.8
20260509063716 72 38 8.0 11.0 0.00 0.59 0.00 95 1013.9
20260509063219 72 47 7.0 10.0 0.00 0.59 0.00 95 1013.8
20260509062743 72 49 8.0 9.0 0.00 0.59 0.00 95 1013.8
20260509062224 72 41 6.0 10.0 0.00 0.59 0.00 95 1013.9
20260509061727 72 31 6.0 10.0 0.00 0.59 0.00 95 1014.0
20260509061232 72 23 8.0 10.0 0.00 0.59 0.00 95 1014.1
20260509060719 73 35 7.0 10.0 0.00 0.59 0.00 95 1014.1
20260509060223 73 22 6.0 13.0 0.00 0.59 0.00 95 1014.1
20260509055724 73 6 8.0 13.0 0.00 0.59 0.00 95 1014.2
20260509055228 73 8 9.0 13.0 0.00 0.59 0.00 95 1014.3
20260509054750 73 7 9.0 13.0 0.00 0.59 0.00 95 1014.3
20260509054253 73 354 10.0 13.0 0.00 0.59 0.00 95 1014.4
20260509053716 73 352 9.0 14.0 0.00 0.59 0.00 95 1014.4
20260509053239 74 355 9.0 14.0 0.00 0.59 0.00 95 1014.4
20260509052722 73 354 8.0 13.0 0.00 0.59 0.00 95 1014.5
20260509052225 73 345 9.0 14.0 0.00 0.59 0.00 95 1014.6
20260509051727 73 317 9.0 14.0 0.00 0.59 0.00 95 1014.6
20260509051214 73 347 9.0 12.0 0.00 0.59 0.00 95 1014.6
20260509050718 73 353 9.0 12.0 0.00 0.59 0.00 95 1014.7
20260509050242 74 328 8.0 12.0 0.00 0.59 0.00 95 1014.6
20260509045725 73 328 8.0 12.0 0.00 0.59 0.00 95 1014.8
20260509045229 74 320 8.0 12.0 0.00 0.59 0.00 95 1014.8
20260509044752 73 321 7.0 12.0 0.00 0.59 0.00 95 1014.7
20260509044217 74 310 9.0 11.0 0.00 0.59 0.00 95 1014.8
20260509043722 74 314 7.0 11.0 0.00 0.59 0.00 95 1014.8
20260509043227 74 318 6.0 8.0 0.00 0.59 0.00 95 1014.8
20260509042751 74 331 6.0 8.0 0.00 0.59 0.00 95 1014.8
20260509041743 74 337 6.0 8.0 0.00 0.59 0.00 95 1014.9
20260509041224 74 311 7.0 8.0 0.00 0.59 0.00 96 1015.0
20260509040721 74 315 6.0 7.0 0.00 0.59 0.00 96 1015.1
20260509040214 74 312 4.0 5.0 0.00 0.59 0.00 96 1015.1
20260509035718 73 310 3.0 4.0 0.00 0.59 0.59 96 1015.0
20260509024720 74 149 1.0 1.0 0.00 0.59 0.59 95 1015.0
20260509024225 74 149 1.0 1.0 0.00 0.59 0.59 95 1015.0
20260509023730 74 148 0.0 1.0 0.00 0.59 0.59 95 1014.9
20260509023253 74 158 0.0 1.0 0.00 0.59 0.59 95 1014.9
20260509022716 74 158 1.0 2.0 0.00 0.59 0.59 95 1014.9
20260509022221 74 160 1.0 2.0 0.00 0.59 0.59 95 1015.0
20260509021726 74 156 1.0 1.0 0.00 0.59 0.59 95 1014.9
20260509021230 74 153 0.0 2.0 0.00 0.59 0.59 95 1014.7
20260509020722 74 152 0.0 4.0 0.00 0.59 0.59 95 1014.6
20260509020227 74 134 2.0 4.0 0.00 0.59 0.59 95 1014.6
20260509015752 74 58 3.0 4.0 0.00 0.59 0.59 95 1014.6
20260509015220 73 44 3.0 4.0 0.00 0.59 0.59 95 1014.5
20260509014725 73 59 2.0 5.0 0.00 0.59 0.59 95 1014.5
20260509014230 73 38 3.0 5.0 0.00 0.59 0.59 95 1014.4
20260509013735 73 23 3.0 6.0 0.00 0.59 0.59 95 1014.4
20260509013218 74 11 4.0 6.0 0.00 0.59 0.59 95 1014.4
20260509012722 73 9 4.0 5.0 0.00 0.59 0.59 95 1014.3
20260509012227 73 20 4.0 7.0 0.00 0.59 0.59 95 1014.1
20260509011732 74 23 5.0 7.0 0.00 0.59 0.59 95 1014.0
20260509011216 74 40 5.0 9.0 0.00 0.59 0.59 95 1014.0
20260509010246 74 340 7.0 9.0 0.00 0.59 0.59 95 1014.1
20260509005729 74 2 5.0 7.0 0.00 0.59 0.59 95 1014.0
20260509005218 74 355 5.0 8.0 0.00 0.59 0.59 95 1013.8
20260509004723 74 338 5.0 11.0 0.00 0.59 0.59 95 1013.8
20260509004228 74 43 7.0 10.0 0.00 0.59 0.59 95 1013.6
20260509003730 74 63 8.0 10.0 0.00 0.59 0.59 95 1013.5
20260509003217 74 130 0.0 1.0 0.00 0.59 0.59 95 1013.8
20260509002721 74 139 0.0 8.0 0.00 0.59 0.59 95 1014.0
20260509002226 74 94 5.0 10.0 0.00 0.59 0.59 95 1013.8
20260509001731 74 60 8.0 10.0 0.00 0.59 0.59 95 1013.7
20260509001216 74 67 7.0 10.0 0.00 0.59 0.59 95 1013.6
20260509000750 74 80 7.0 11.0 0.00 0.59 0.59 95 1013.7
20260509000216 74 70 9.0 13.0 0.00 0.59 0.59 95 1013.6
20260508235720 74 78 9.0 12.0 0.00 0.59 0.59 95 1013.4
20260508235228 75 74 8.0 10.0 0.00 0.59 0.59 95 1013.4
20260508234713 74 72 8.0 10.0 0.01 0.59 0.59 94 1013.3
20260508234217 74 69 6.0 11.0 0.02 0.59 0.59 94 1013.5
20260508233722 74 70 8.0 11.0 0.02 0.59 0.59 94 1013.4
20260508233227 74 63 9.0 10.0 0.03 0.59 0.59 94 1013.1
20260508232731 74 75 8.0 11.0 0.04 0.59 0.59 94 1013.1
20260508232216 74 75 8.0 13.0 0.05 0.59 0.59 94 1013.0
20260508231721 74 61 11.0 15.0 0.06 0.59 0.59 94 1012.8
20260508231206 74 71 11.0 16.0 0.11 0.59 0.59 95 1012.6
20260508230711 74 66 13.0 16.0 0.19 0.59 0.59 94 1012.4
20260508230221 74 68 13.0 16.0 0.36 0.59 0.59 94 1012.4
20260508225724 74 80 13.0 15.0 0.52 0.59 0.59 94 1012.6
20260508225208 74 82 11.0 17.0 0.56 0.59 0.59 94 1013.0
20260508224713 74 59 12.0 17.0 0.57 0.58 0.58 95 1012.8
20260508224236 73 64 10.0 14.0 0.57 0.57 0.57 94 1012.7
20260508223721 74 32 9.0 12.0 0.57 0.57 0.57 94 1012.8
20260508223204 74 48 8.0 16.0 0.56 0.56 0.56 94 1012.9
20260508222709 74 41 10.0 16.0 0.55 0.55 0.55 94 1012.5
20260508222213 74 35 12.0 16.0 0.54 0.54 0.54 93 1012.1
20260508221718 74 25 11.0 14.0 0.52 0.52 0.52 93 1012.4
20260508221223 74 13 10.0 12.0 0.48 0.48 0.48 93 1012.7
20260508220722 75 339 5.0 11.0 0.38 0.38 0.38 93 1012.9
20260508220210 75 344 6.0 20.0 0.19 0.19 0.19 92 1013.2
20260508215711 76 12 14.0 24.0 0.06 0.06 0.06 91 1012.8
20260508215216 77 43 18.0 24.0 0.03 0.03 0.03 90 1011.8
20260508214738 78 41 17.0 21.0 0.01 0.01 0.01 88 1011.3
20260508214220 78 38 17.0 20.0 0.00 0.00 0.00 86 1011.7
20260508213723 79 44 13.0 18.0 0.00 0.00 0.00 86 1011.8
20260508213224 79 54 13.0 18.0 0.00 0.00 0.00 85 1011.4
20260508212708 79 40 13.0 16.0 0.00 0.00 0.00 85 1011.4
20260508212209 80 40 13.0 16.0 0.00 0.00 0.00 85 1011.8
20260508211714 80 37 12.0 17.0 0.00 0.00 0.00 84 1012.0
20260508211218 80 56 11.0 18.0 0.00 0.00 0.00 85 1011.8
20260508210721 81 78 13.0 18.0 0.00 0.00 0.00 84 1011.7
20260508210208 81 75 14.0 22.0 0.00 0.00 0.00 86 1011.3
20260508205709 81 73 18.0 22.0 0.00 0.00 0.00 84 1011.2
20260508205231 81 68 18.0 21.0 0.00 0.00 0.00 84 1011.2
20260508204734 81 66 17.0 21.0 0.00 0.00 0.00 84 1011.1
20260508204216 82 66 17.0 21.0 0.00 0.00 0.00 83 1011.2
20260508203740 82 76 17.0 19.0 0.00 0.00 0.00 81 1011.3